St. James, MN

12:13 PM CST on December 06, 2019 (GMT -0600)
Saint James Municipal

Weather History for KJYG - June, 2019

Change the Weather History Date:

Tuesday, June 11, 2019

  Actual Average Record
Temperature  
Mean Temperature 63 °F -  
Max Temperature 66 °F 81 °F 96 °F (2001)
Min Temperature 60 °F 57 °F 42 °F (1958)
Degree Days  
Heating Degree Days 2    
Growing Degree Days 13 (Base 50)    
Moisture  
Dew Point 54 °F    
Average Humidity 73    
Maximum Humidity 88    
Minimum Humidity 49    
Precipitation  
Precipitation 0.01 in - - ()
Sea Level Pressure  
Sea Level Pressure 30.06 in    
Wind  
Wind Speed 7 mph (SSE)    
Max Wind Speed 17 mph    
Max Gust Speed 23 mph    
Visibility 10 miles    
Events Rain , Thunderstorm    
Averages and records for this station are not official NWS values.
T = Trace of Precipitation, MM = Missing Value Source: NWS Daily Summary

Daily Weather History Graph

Daily Weather History Graph

Search for Another Location

Airport or City:

Astronomy

Jun. 11, 2019 Rise Set
Actual Time 5:35 AM CDT 9:00 PM CDT
Civil Twilight 4:59 AM CDT 9:37 PM CDT
Nautical Twilight 4:11 AM CDT 10:24 PM CDT
Astronomical Twilight 3:12 AM CDT 11:24 PM CDT
Moon 2:47 PM CDT (6/11) 2:34 AM CDT (6/11)
Length of Visible Light 16h 37m
Length of Day
15h 25m
Waxing Gibbous, 66% of the Moon is Illuminated
Jun 11
Waxing Gibbous
Jun 17
Full
Jun 25
Last Quarter
Jul 2
New
Jul 9
First Quarter

Hourly Weather History & Observations

Time (CDT) Temp. Dew Point Humidity Pressure Visibility Wind Dir Wind Speed Gust Speed Precip Events Conditions
12:25 AM 60.8 °F 46.4 °F 59% 30.12 in 10.0 mi South 3.5 mph - N/A   Clear
12:40 AM 60.8 °F 46.4 °F 59% 30.12 in 10.0 mi Calm Calm - N/A   Clear
12:56 AM 60.8 °F 46.4 °F 59% 30.13 in 10.0 mi SSW 3.5 mph - N/A   Clear
1:15 AM 60.8 °F 48.2 °F 63% 30.12 in 10.0 mi SSW 4.6 mph - N/A   Clear
1:42 AM 62.6 °F 48.2 °F 59% 30.12 in 10.0 mi SSW 4.6 mph - N/A   Clear
1:57 AM 62.6 °F 46.4 °F 55% 30.12 in 10.0 mi SSW 3.5 mph - N/A   Clear
2:15 AM 62.6 °F 46.4 °F 55% 30.12 in 10.0 mi SSW 4.6 mph - N/A   Clear
2:35 AM 62.6 °F 46.4 °F 55% 30.11 in 10.0 mi SSW 4.6 mph - N/A   Clear
2:46 AM 62.6 °F 46.4 °F 55% 30.11 in 10.0 mi SSW 5.8 mph - N/A   Scattered Clouds
3:02 AM 62.6 °F 48.2 °F 59% 30.11 in 10.0 mi WSW 4.6 mph - N/A   Scattered Clouds
3:17 AM 64.4 °F 46.4 °F 52% 30.12 in 10.0 mi WSW 6.9 mph - N/A   Mostly Cloudy
3:35 AM 66.2 °F 48.2 °F 52% 30.11 in 10.0 mi SW 12.7 mph - N/A   Scattered Clouds
3:36 AM 66.2 °F 48.2 °F 52% 30.11 in 10.0 mi WSW 12.7 mph - N/A   Clear
4:03 AM 66.2 °F 46.4 °F 49% 30.11 in 10.0 mi WSW 9.2 mph - N/A   Scattered Clouds
4:19 AM 66.2 °F 46.4 °F 49% 30.11 in 10.0 mi WSW 9.2 mph - N/A   Scattered Clouds
4:35 AM 66.2 °F 46.4 °F 49% 30.11 in 10.0 mi West 6.9 mph - N/A   Clear
5:05 AM 66.2 °F 46.4 °F 49% 30.11 in 10.0 mi WSW 11.5 mph - N/A   Scattered Clouds
5:20 AM 66.2 °F 46.4 °F 49% 30.11 in 10.0 mi West 9.2 mph - N/A   Scattered Clouds
5:36 AM 66.2 °F 48.2 °F 52% 30.11 in 10.0 mi West 12.7 mph 19.6 mph N/A   Scattered Clouds
5:55 AM 66.2 °F 46.4 °F 49% 30.11 in 10.0 mi West 17.3 mph 20.7 mph N/A   Clear
6:22 AM 66.2 °F 48.2 °F 52% 30.12 in 10.0 mi West 16.1 mph 23.0 mph N/A   Scattered Clouds
6:37 AM 64.4 °F 51.8 °F 64% 30.13 in 10.0 mi West 16.1 mph - N/A Rain Light Rain
6:55 AM 62.6 °F 51.8 °F 68% 30.13 in 10.0 mi West 13.8 mph 19.6 mph N/A Rain Light Rain
7:23 AM 62.6 °F 53.6 °F 72% 30.14 in 10.0 mi West 12.7 mph 19.6 mph N/A Rain Rain
7:39 AM 62.6 °F 53.6 °F 72% 30.14 in 10.0 mi West 11.5 mph 18.4 mph N/A   Light Drizzle
7:55 AM 60.8 °F 53.6 °F 77% 30.14 in 10.0 mi West 6.9 mph - N/A Rain Light Rain
8:13 AM 60.8 °F 55.4 °F 82% 30.14 in 10.0 mi WSW 5.8 mph - N/A Rain Light Rain
8:25 AM 60.8 °F 53.6 °F 77% 30.14 in 10.0 mi SW 4.6 mph - N/A   Drizzle
8:40 AM 60.8 °F 53.6 °F 77% 30.13 in 10.0 mi South 5.8 mph - N/A Rain Light Rain
8:56 AM 62.6 °F 53.6 °F 72% 30.14 in 10.0 mi SSW 4.6 mph - N/A Rain Light Rain
9:15 AM 62.6 °F 53.6 °F 72% 30.13 in 10.0 mi South 6.9 mph - N/A   Overcast
9:42 AM 62.6 °F 53.6 °F 72% 30.13 in 10.0 mi South 9.2 mph - N/A Rain Light Rain
9:57 AM 60.8 °F 55.4 °F 82% 30.12 in 10.0 mi SSE 9.2 mph - N/A Rain Light Rain
10:15 AM 60.8 °F 53.6 °F 77% 30.12 in 10.0 mi SSE 8.1 mph - N/A Rain Rain
10:43 AM 60.8 °F 55.4 °F 82% 30.12 in 10.0 mi SE 6.9 mph - N/A Rain Rain
10:59 AM 60.8 °F 55.4 °F 82% 30.12 in 10.0 mi ESE 5.8 mph - N/A Rain Light Rain
11:15 AM 60.8 °F 55.4 °F 82% 30.11 in 10.0 mi ESE 6.9 mph - N/A Rain Light Rain
11:33 AM 60.8 °F 55.4 °F 82% 30.10 in 10.0 mi ESE 8.1 mph - N/A Rain Rain
11:45 AM 60.8 °F 55.4 °F 82% 30.10 in 10.0 mi East 6.9 mph - N/A Rain Light Rain
12:00 PM 60.8 °F 55.4 °F 82% 30.10 in 10.0 mi ENE 5.8 mph - N/A Rain Light Rain
12:15 PM 60.8 °F 55.4 °F 82% 30.10 in 10.0 mi NNE 5.8 mph - N/A Rain Light Rain
12:35 PM 60.8 °F 55.4 °F 82% 30.08 in 10.0 mi ENE 8.1 mph - N/A Rain Light Rain
1:02 PM 60.8 °F 57.2 °F 88% 30.08 in 10.0 mi East 6.9 mph - N/A   Mostly Cloudy
1:17 PM 60.8 °F 55.4 °F 82% 30.08 in 10.0 mi East 6.9 mph - N/A   Mostly Cloudy
1:35 PM 60.8 °F 55.4 °F 82% 30.06 in 10.0 mi East 6.9 mph - N/A   Overcast
2:03 PM 60.8 °F 55.4 °F 82% 30.05 in 10.0 mi East 8.1 mph - N/A   Mostly Cloudy
2:18 PM 60.8 °F 55.4 °F 82% 30.04 in 10.0 mi East 9.2 mph - N/A   Mostly Cloudy
2:35 PM 60.8 °F 55.4 °F 82% 30.04 in 10.0 mi East 9.2 mph - N/A   Mostly Cloudy
2:36 PM 60.8 °F 55.4 °F 82% 30.04 in 10.0 mi East 9.2 mph - N/A   Mostly Cloudy
3:05 PM 62.6 °F 57.2 °F 82% 30.03 in 10.0 mi East 8.1 mph - N/A Rain Light Rain
3:20 PM 62.6 °F 59.0 °F 88% 30.03 in 10.0 mi SE 9.2 mph - N/A Rain Light Rain
3:35 PM 64.4 °F 59.0 °F 83% 30.02 in 10.0 mi SE 9.2 mph - N/A   Scattered Clouds
3:55 PM 66.2 °F 60.8 °F 83% 30.01 in 10.0 mi SE 11.5 mph - N/A Rain Light Rain
4:22 PM 66.2 °F 60.8 °F 83% 29.99 in 10.0 mi SSE 11.5 mph - N/A   Clear
4:37 PM 66.2 °F 57.2 °F 73% 29.99 in 10.0 mi South 12.7 mph - N/A   Clear
4:55 PM 66.2 °F 55.4 °F 68% 29.98 in 10.0 mi South 10.4 mph - N/A   Scattered Clouds
5:23 PM 64.4 °F 55.4 °F 73% 29.98 in 10.0 mi SSE 10.4 mph - N/A   Overcast
5:38 PM 66.2 °F 57.2 °F 73% 29.97 in 10.0 mi South 12.7 mph - N/A   Mostly Cloudy
5:55 PM 66.2 °F 57.2 °F 73% 29.97 in 10.0 mi South 16.1 mph 21.9 mph N/A   Scattered Clouds
5:56 PM 66.2 °F 57.2 °F 73% 29.97 in 10.0 mi SSE 17.3 mph 23.0 mph N/A   Scattered Clouds
6:25 PM 64.4 °F 55.4 °F 73% 29.97 in 10.0 mi South 13.8 mph - N/A Thunderstorm Scattered Clouds
6:40 PM 64.4 °F 55.4 °F 73% 29.96 in 10.0 mi SSE 11.5 mph - N/A   Clear
6:55 PM 64.4 °F 57.2 °F 77% 29.95 in 10.0 mi SSE 9.2 mph - N/A   Clear
7:15 PM 62.6 °F 57.2 °F 82% 29.96 in 10.0 mi SSE 6.9 mph - N/A   Scattered Clouds
7:41 PM 62.6 °F 57.2 °F 82% 29.96 in 10.0 mi SSE 4.6 mph - N/A   Mostly Cloudy
7:57 PM 62.6 °F 57.2 °F 82% 29.96 in 10.0 mi Calm Calm - N/A   Light Drizzle
8:15 PM 62.6 °F 57.2 °F 82% 29.96 in 10.0 mi Calm Calm - N/A Rain , Thunderstorm Light Thunderstorms and Rain
8:43 PM 62.6 °F 57.2 °F 82% 29.95 in 10.0 mi Calm Calm - N/A   Drizzle
8:58 PM 62.6 °F 57.2 °F 82% 29.95 in 10.0 mi Calm Calm - N/A Rain Light Rain
9:15 PM 62.6 °F 59.0 °F 88% 29.94 in 10.0 mi East 8.1 mph - N/A   Light Drizzle
9:16 PM 62.6 °F 59.0 °F 88% 29.94 in 10.0 mi East 8.1 mph - N/A Rain Light Rain
9:33 PM 60.8 °F 57.2 °F 88% 29.95 in 10.0 mi East 8.1 mph - N/A Rain Light Rain
9:45 PM 60.8 °F 57.2 °F 88% 29.95 in - East 4.6 mph - N/A   Unknown
10:00 PM 60.8 °F 57.2 °F 88% 29.96 in - East 6.9 mph - N/A   Overcast
10:15 PM - - N/A% - - North - - N/A   Unknown
10:36 PM - - N/A% - - North - - 0.01 in   Unknown
11:02 PM - - N/A% 29.96 in - East 4.6 mph - N/A   Unknown
11:18 PM 60.8 °F 57.2 °F 88% 29.97 in 10.0 mi East 3.5 mph - N/A Rain Light Rain
11:35 PM 60.8 °F 57.2 °F 88% 29.97 in 10.0 mi East 3.5 mph - N/A Rain Light Rain